[[{"header":{"parameterUnit":"m.s-1","parameterCategory":1,"la1":30.2991,"la2":30.254,"lo1":-89.0895,"lo2":-89.0444,"dy":0.0017,"dx":0.0017,"nx":28,"ny":28,"refTime":"2025-07-23T03:00:00:Z","depth":0,"parameterNumber":2,"parameterNumberName":"U-component_of_WINDS"},"data":[0,0,0,0,0,0,0,0,0,0,0,0,0,0,0,0,0,0,0,0,0,0,0,0,0,0,0,0,0,0,0,0,0,0,0,0,0,0,0,0,0,0,0,0,0,0,0,0,0,0,0,0,0,0,0,0,0,0,2.2603,2.2604,0,2.2743,2.2744,2.2746,2.2723,2.272,2.2718,2.2715,2.2865,2.2871,2.2877,0,0,0,0,0,0,0,0,0,0,0,0,0,2.2322,2.2327,2.2603,2.2605,2.2606,2.2742,2.2744,2.2746,2.2723,2.272,2.2717,2.2714,2.2863,2.287,2.2877,0,0,0,0,0,0,0,0,0,0,0,0,0,2.2451,2.2329,2.2602,2.2611,2.2613,2.2742,2.2744,2.2747,2.2724,2.272,2.2716,2.2713,2.286,2.2869,2.2878,2.301,0,0,2.2907,2.2911,0,0,0,0,0,0,0,0,2.2444,2.2462,2.2608,2.2611,2.2613,2.2711,2.27,2.2835,2.2725,2.2682,2.2715,2.2711,2.2817,2.283,2.2864,2.3017,2.3023,2.2908,2.2914,2.2918,2.292,0,0,0,0,0,0,0,2.2435,2.2456,2.2658,2.261,2.2613,2.261,2.2624,2.2726,2.2769,2.2685,2.2684,2.2701,2.2818,2.2855,2.2867,2.3025,2.2908,2.2916,2.2922,2.2925,2.3295,2.3299,0,0,0,0,0,0,2.2423,2.2448,2.2654,2.2662,2.2518,2.2618,2.2634,2.2684,2.2767,2.2776,2.2703,2.2699,2.2841,2.2857,2.2873,2.3033,2.2918,2.2926,2.2932,2.3291,2.3296,2.33,0,0,0,0,0,0,2.2417,2.2441,2.2648,2.2555,2.2581,2.2627,2.2683,2.2688,2.2726,2.2781,2.2789,2.2733,2.2839,2.2859,2.2976,2.3038,2.2931,2.2939,2.3286,2.3292,2.3298,2.3354,0,0,0,0,0,0,2.2409,2.2439,2.2488,2.2556,2.2586,2.2747,2.2686,2.2694,2.2741,2.2736,2.2811,2.282,2.2837,2.2962,2.2985,2.3049,2.2946,2.328,2.3289,2.3296,2.3347,2.3361,2.3374,0,0,0,0,0,2.2399,2.2499,2.249,2.2515,2.2648,2.2751,2.2768,2.2784,2.2746,2.2797,2.2832,2.2818,2.3027,2.2974,2.3,2.3067,2.3277,2.3286,2.3295,2.3341,2.3358,2.3373,0,0,0,0,0,0,2.2438,2.2508,2.2499,2.2624,2.2681,2.2746,2.281,2.2802,2.2873,2.2866,2.2885,2.2902,2.3021,2.3056,2.2995,2.32,2.3147,2.3162,2.3172,2.319,2.3203,2.3192,2.2954,0,0,0,0,0,2.2461,2.2537,2.2595,2.2699,2.2728,2.2765,2.281,2.2818,2.2879,2.2903,2.2948,2.3009,2.3089,2.3141,2.3218,2.3352,2.3369,2.3411,2.3424,2.3435,2.3448,2.3523,2.3543,2.3331,2.3331,2.3331,0,0,2.251,2.2557,2.2604,2.2708,2.2754,2.2834,2.2785,2.2872,2.2932,2.2917,2.3029,2.3064,2.3135,2.3261,2.3318,2.3294,2.3511,2.3447,2.3455,2.3463,2.3535,2.3555,2.3573,2.3338,2.3336,2.3335,0,0,2.2639,2.2682,2.2774,2.2821,2.289,2.2913,2.2936,2.3003,2.3025,2.3137,2.3128,2.3202,2.3338,2.3389,2.3433,2.3583,2.3573,2.3608,2.3679,2.3752,2.3768,2.3783,2.3838,2.3858,2.3621,2.3621,2.3621,0,2.2691,2.281,2.2823,2.2911,2.2959,2.2947,2.3042,2.3087,2.3179,2.3212,2.3183,2.3355,2.3401,2.354,2.3576,2.3612,2.364,2.3599,2.3764,2.378,2.3794,2.3846,2.3867,2.3625,2.3624,2.3624,2.3623,0,2.2871,2.2954,2.3021,2.3107,2.3162,2.3254,2.3283,2.3337,2.3341,2.3368,2.3485,2.354,2.3628,2.3661,2.3666,2.3802,2.3784,2.376,2.3707,2.3818,2.3867,2.3888,2.363,2.3629,2.3628,2.3627,0,0,2.3028,2.3122,2.3146,2.3186,2.3262,2.3328,2.342,2.3504,2.3551,2.3615,2.3694,2.3811,2.3788,2.3838,2.3849,2.3913,2.403,2.3881,2.3883,2.3907,2.4185,2.4203,2.4226,2.4024,2.4028,2.4031,2.4179,0,2.3166,2.3325,2.3341,2.3486,2.3564,2.3555,2.3635,2.3692,2.3721,2.3793,2.3825,2.3908,2.3872,2.3902,2.3965,2.4003,2.4087,2.3992,2.4099,2.4103,2.4082,2.4252,2.4271,2.4408,2.4199,2.4202,2.4204,0,2.3347,2.3414,2.3566,2.3633,2.3666,2.3738,2.3817,2.3886,2.3951,2.3967,2.4023,2.4026,2.4123,2.4067,2.4202,2.4138,2.4183,2.4208,2.4214,2.4225,2.416,2.4268,2.4452,2.4473,2.4235,2.4233,2.423,0,2.3447,2.3577,2.3685,2.3719,2.3799,2.385,2.3886,2.3947,2.3998,2.4068,2.4102,2.4183,2.4228,2.4292,2.4318,2.4274,2.4452,2.4397,2.447,2.447,2.4508,2.4506,2.4703,2.4537,2.4537,2.4536,2.4536,0,2.3599,2.3692,2.3731,2.3797,2.3903,2.3921,2.4026,2.406,2.4115,2.4189,2.4187,2.4258,2.4287,2.4362,2.4383,2.4493,2.4513,2.4531,2.4535,2.4531,2.4529,2.4561,2.4552,2.4542,2.4541,2.454,2.4539,0,2.3729,2.3758,2.3875,2.3941,2.3961,2.4035,2.4093,2.4159,2.4187,2.4281,2.4305,2.435,2.4439,2.447,2.4579,2.4593,2.4721,2.4717,2.4698,2.4699,2.4771,2.4764,2.4996,2.5027,2.484,2.4842,2.4843,0,2.3823,2.3895,2.3969,2.4018,2.4056,2.4135,2.4186,2.4208,2.4262,2.4342,2.4399,2.4487,2.4559,2.4702,2.4746,2.483,2.4828,2.4904,2.4841,2.4835,2.483,2.4826,2.4833,2.4916,2.4917,2.4919,2.492,0,2.3989,2.4,2.4073,2.4152,2.4213,2.4277,2.4338,2.4379,2.4411,2.4472,2.4562,2.4618,2.4729,2.4817,2.4903,2.4943,2.4938,2.494,2.4961,2.4958,2.4944,2.4953,2.4731,2.4934,2.4933,2.4932,2.4931,2.4931,2.4105,2.4168,2.4231,2.4313,2.4361,2.4419,2.4484,2.452,2.4596,2.4686,2.4696,2.4793,2.4859,2.4973,2.5017,2.5095,2.5075,2.5106,2.5113,2.5121,2.5126,2.4931,2.5111,2.5111,2.511,2.511,2.511,0,2.4271,2.4311,2.4386,2.4472,2.4537,2.4525,2.4593,2.4649,2.4735,2.4795,2.4866,2.4971,2.5057,2.5107,2.5194,2.5247,2.5247,2.5269,2.5266,2.5275,2.5139,2.5112,2.5268,2.5268,2.5268,2.5268,2.5268,2.5268,2.4365,2.4472,2.4491,2.4624,2.4663,2.4758,2.4798,2.4852,2.4901,2.5018,2.5088,2.512,2.5178,2.5269,2.5348,2.5361,2.5394,2.5418,2.5429,2.5301,2.5285,2.5269,2.5244,2.5424,2.5425,2.5558,2.5559,2.556]},{"header":{"parameterUnit":"m.s-1","parameterCategory":1,"la1":30.2991,"la2":30.254,"lo1":-89.0895,"lo2":-89.0444,"dy":0.0017,"dx":0.0017,"nx":28,"ny":28,"refTime":"2025-07-23T03:00:00:Z","depth":0,"parameterNumber":3,"parameterNumberName":"V-component_of_WINDS"},"data":[0,0,0,0,0,0,0,0,0,0,0,0,0,0,0,0,0,0,0,0,0,0,0,0,0,0,0,0,0,0,0,0,0,0,0,0,0,0,0,0,0,0,0,0,0,0,0,0,0,0,0,0,0,0,0,0,0,0,1.8326,1.8326,0,1.8408,1.8409,1.841,1.8337,1.8334,1.8331,1.8329,1.8414,1.8419,1.8424,0,0,0,0,0,0,0,0,0,0,0,0,0,1.8102,1.8107,1.8325,1.8326,1.8328,1.8408,1.8409,1.841,1.8338,1.8334,1.8331,1.8327,1.8413,1.8419,1.8425,0,0,0,0,0,0,0,0,0,0,0,0,0,1.8194,1.8108,1.8325,1.8301,1.83,1.8408,1.8409,1.8411,1.8339,1.8334,1.833,1.8326,1.8411,1.8418,1.8426,1.8562,0,0,1.8449,1.8452,0,0,0,0,0,0,0,0,1.8189,1.8202,1.8304,1.8303,1.8302,1.8358,1.8362,1.8462,1.834,1.8324,1.8329,1.8323,1.8399,1.8408,1.8433,1.8566,1.857,1.845,1.8454,1.8457,1.846,0,0,0,0,0,0,0,1.8182,1.8198,1.8358,1.8305,1.8304,1.8285,1.8293,1.838,1.8386,1.8325,1.832,1.8331,1.8398,1.8426,1.8434,1.8571,1.8449,1.8456,1.8461,1.8464,1.8814,1.8819,0,0,0,0,0,0,1.8179,1.8193,1.8356,1.8361,1.8233,1.8293,1.8302,1.8344,1.8385,1.8386,1.8334,1.8327,1.8415,1.8426,1.8437,1.8595,1.8457,1.8464,1.8469,1.8809,1.8815,1.882,0,0,0,0,0,0,1.8174,1.8194,1.8352,1.8276,1.8294,1.8302,1.835,1.8348,1.8376,1.8392,1.8392,1.8362,1.8412,1.8426,1.853,1.8597,1.8468,1.8475,1.8804,1.8811,1.8818,1.8915,0,0,0,0,0,0,1.8168,1.8193,1.8246,1.8277,1.8299,1.8445,1.8354,1.8353,1.8389,1.838,1.8418,1.842,1.841,1.8519,1.8538,1.8605,1.8481,1.8798,1.8807,1.8815,1.8905,1.8924,1.894,0,0,0,0,0,1.816,1.8271,1.8249,1.8269,1.8365,1.8449,1.8461,1.8447,1.8395,1.8447,1.8456,1.8418,1.8587,1.853,1.8551,1.8621,1.8793,1.8804,1.8815,1.8898,1.892,1.894,0,0,0,0,0,0,1.8249,1.8275,1.825,1.8375,1.841,1.8437,1.8502,1.8473,1.8524,1.8513,1.8494,1.8503,1.8611,1.8627,1.8563,1.8753,1.8682,1.8697,1.8738,1.876,1.8777,1.8769,1.8487,0,0,0,0,0,1.8283,1.8349,1.8368,1.8476,1.8495,1.8496,1.8532,1.8517,1.8553,1.8568,1.8585,1.8621,1.8681,1.8722,1.8779,1.8908,1.8912,1.8966,1.8984,1.8998,1.901,1.9074,1.9097,1.8855,1.8855,1.8855,0,0,1.8354,1.8376,1.842,1.8494,1.852,1.8587,1.8509,1.8585,1.8634,1.858,1.8677,1.8691,1.8729,1.8845,1.8897,1.8861,1.9078,1.9011,1.9023,1.9027,1.9087,1.911,1.913,1.8863,1.8861,1.886,0,0,1.8516,1.8542,1.8632,1.8658,1.8696,1.8695,1.8717,1.8747,1.8754,1.8851,1.881,1.8868,1.8974,1.9001,1.903,1.9198,1.9163,1.9217,1.9307,1.9369,1.9388,1.9405,1.946,1.9481,1.923,1.923,1.923,0,1.86,1.87,1.8682,1.8759,1.8791,1.8744,1.8832,1.8859,1.8915,1.8938,1.8898,1.9026,1.905,1.9168,1.9208,1.9234,1.9255,1.9212,1.9387,1.9403,1.9419,1.9471,1.9492,1.9236,1.9236,1.9235,1.9234,0,1.8797,1.8867,1.8935,1.8987,1.9028,1.9111,1.9104,1.9147,1.9128,1.9131,1.9228,1.9253,1.9312,1.934,1.9324,1.9455,1.9431,1.939,1.9317,1.9448,1.9496,1.9517,1.9245,1.9243,1.9241,1.9239,0,0,1.9019,1.9057,1.9082,1.9103,1.914,1.9193,1.9273,1.9329,1.9363,1.9403,1.9467,1.9556,1.9516,1.9548,1.9534,1.9589,1.9714,1.954,1.9541,1.9568,1.9854,1.9882,1.9906,1.9692,1.9696,1.9699,1.9849,0,1.9179,1.9316,1.93,1.943,1.9492,1.9446,1.9514,1.9543,1.9547,1.9599,1.9604,1.9665,1.9611,1.9628,1.9681,1.9688,1.9771,1.9677,1.9748,1.9751,1.9736,1.9932,1.9963,2.0103,1.9869,1.9872,1.9874,0,1.9385,1.9428,1.9564,1.9586,1.9612,1.9674,1.972,1.9772,1.9803,1.9802,1.9835,1.981,1.9887,1.9815,1.9919,1.9855,1.9884,1.9891,1.9896,1.9899,1.9818,1.9937,2.0148,2.0168,1.9905,1.9903,1.99,0,1.9526,1.962,1.9711,1.9731,1.9761,1.9805,1.9819,1.9846,1.9879,1.9921,1.9941,1.9992,2.0019,2.0058,2.0046,1.9996,2.0151,2.0079,2.0149,2.0149,2.0182,2.0179,2.0397,2.0207,2.0206,2.0206,2.0206,0,1.9705,1.9789,1.9774,1.983,1.9921,1.9902,1.9992,2.0001,2.0024,2.0079,2.0044,2.0097,2.008,2.0132,2.0123,2.0207,2.0221,2.022,2.0216,2.0221,2.0221,2.0237,2.0225,2.0212,2.021,2.0209,2.0208,0,1.9878,1.9872,1.9968,1.9987,1.9994,2.006,2.0076,2.0127,2.0127,2.0197,2.0213,2.0213,2.0271,2.0263,2.033,2.0323,2.0426,2.0413,2.0415,2.0411,2.0479,2.0471,2.0712,2.074,2.0536,2.0538,2.0539,0,1.999,2.0053,2.0078,2.0111,2.0128,2.0184,2.0216,2.0199,2.0233,2.0271,2.0317,2.0371,2.0413,2.0508,2.0513,2.0562,2.0546,2.0627,2.0554,2.0555,2.0542,2.0537,2.054,2.0641,2.0643,2.0645,2.0647,0,2.0189,2.0181,2.0229,2.0274,2.0313,2.0349,2.0381,2.041,2.0395,2.0436,2.0494,2.0526,2.0591,2.0644,2.0689,2.0703,2.0671,2.067,2.0688,2.0692,2.0688,2.0686,2.045,2.0664,2.0662,2.0661,2.066,2.0659,2.0331,2.0382,2.0406,2.0459,2.048,2.051,2.0557,2.0562,2.0609,2.0659,2.0647,2.0711,2.0736,2.0793,2.0811,2.086,2.083,2.0857,2.0863,2.0869,2.0874,2.0683,2.0868,2.0868,2.0867,2.0867,2.0867,0,2.0523,2.0535,2.0584,2.0628,2.0668,2.0635,2.0667,2.0703,2.0759,2.0785,2.0826,2.089,2.094,2.0949,2.0996,2.1033,2.1019,2.1045,2.104,2.1043,2.0901,2.0879,2.1055,2.1055,2.1055,2.1055,2.1055,2.1055,2.0628,2.071,2.0706,2.0797,2.0809,2.087,2.0891,2.0916,2.0936,2.1009,2.1049,2.1054,2.1071,2.1119,2.1162,2.1163,2.118,2.1211,2.1206,2.1073,2.1054,2.1036,2.1014,2.1216,2.1216,2.1343,2.1344,2.1345]}]]